AO-07 1 07530U 74089B 21245.75136899 -.00000027 00000-0 11427-3 0 9993 2 07530 101.8618 220.1930 0011835 233.3132 249.9077 12.53650091141651 UO-11 1 14781U 84021B 21245.76909198 .00000187 00000-0 28939-4 0 9990 2 14781 97.5968 241.8171 0008354 176.9509 183.1758 14.83318665 18397 LO-19 1 20442U 90005G 21245.78211440 .00000011 00000-0 20494-4 0 9992 2 20442 98.7478 201.9779 0010760 296.9022 63.1061 14.32995798651967 HUBBLE 1 20580U 90037B 21245.80940900 .00000706 00000-0 31699-4 0 9993 2 20580 28.4697 273.2115 0002675 170.6348 352.4842 15.09721297522968 MET-2/21 1 22782U 93055A 21245.52672769 .00000044 00000-0 25890-4 0 9997 2 22782 82.5461 242.7337 0023716 76.3666 38.3103 13.83837223414186 AO-27 1 22825U 93061C 21245.75838235 .00000005 00000-0 19761-4 0 9996 2 22825 98.9161 265.2629 0008726 162.8721 197.2757 14.30123026457306 IO-26 1 22826U 93061D 21245.57056851 .00000009 00000-0 21488-4 0 9996 2 22826 98.9104 264.9721 0009471 151.6227 208.5472 14.30463152457259 FO-29 1 24278U 96046B 21245.57181491 -.00000050 00000-0 -11537-4 0 9996 2 24278 98.5608 303.3061 0349546 309.9706 47.1214 13.53105158236677 NOAA-15 1 25338U 98030A 21245.75703723 .00000045 00000-0 37127-4 0 9992 2 25338 98.6782 273.5732 0011325 59.5732 300.6565 14.26055808212262 GO-32 1 25397U 98043D 21245.78260727 -.00000007 00000-0 16504-4 0 9991 2 25397 98.7752 191.1406 0000966 161.9077 198.2136 14.23714463202717 ISS 1 25544U 98067A 21245.66660925 .00003909 00000-0 80185-4 0 9991 2 25544 51.6444 319.5951 0003037 346.9445 145.3381 15.48588378300608 NO-44 1 26931U 01043C 21245.56850988 -.00000023 00000-0 22858-4 0 9997 2 26931 67.0502 81.4185 0005460 266.2213 93.8264 14.30630479 40224 SO-50 1 27607U 02058C 21245.34916815 .00000059 00000-0 28960-4 0 9991 2 27607 64.5546 103.1980 0050204 357.6767 2.4094 14.75782596 5859 CO-55 1 27844U 03031E 21245.57696425 .00000076 00000-0 53757-4 0 9994 2 27844 98.6815 252.6213 0009201 209.7707 150.2948 14.22329318942941 CO-57 1 27848U 03031J 21245.52277186 .00000062 00000-0 47890-4 0 9998 2 27848 98.6870 253.1276 0008864 224.6249 135.4215 14.21903933942764 RS-22 1 27939U 03042A 21245.72861844 .00000115 00000-0 29309-4 0 9997 2 27939 98.1514 22.3292 0013630 41.5491 318.6752 14.67016007958856 NOAA-18 1 28654U 05018A 21245.72106408 .00000062 00000-0 57894-4 0 9996 2 28654 98.9881 310.8707 0015132 66.6164 293.6597 14.12634593839444 CO-58 1 28895U 05043F 21245.31947568 .00000206 00000-0 48414-4 0 9994 2 28895 98.0688 16.9223 0015984 332.4673 27.5682 14.63951298845253 Falconsat-3 1 30776U 07006E 21245.64643100 .00006701 00000-0 15637-3 0 9993 2 30776 35.4352 323.8463 0003005 253.5898 106.4500 15.41565554805026 CO-65 1 32785U 08021C 21245.49133781 .00000465 00000-0 55231-4 0 9991 2 32785 97.6181 221.3738 0014453 105.9295 254.3516 14.88785551723632 AAUSAT2 1 32788U 08021F 21245.49344121 .00000637 00000-0 62071-4 0 9997 2 32788 97.5096 236.9420 0012227 18.7882 341.3788 14.95721121725371 DO-64 1 32789U 08021G 21245.79151701 .00002432 00000-0 15612-3 0 9994 2 32789 97.3719 278.1737 0010295 230.6557 129.3760 15.09326328728595 CO-66 1 32791U 08021J 21245.51594054 .00000700 00000-0 75169-4 0 9999 2 32791 97.5773 227.2306 0014753 71.6918 288.5904 14.91498695724348 RS-30 1 32953U 08025A 21245.73310861 .00000021 00000-0 80971-4 0 9992 2 32953 82.5075 2.8644 0019921 166.0722 194.0915 12.43104121602580 PRISM 1 33493U 09002B 21245.62542604 .00000842 00000-0 77034-4 0 9995 2 33493 98.1951 211.9231 0015708 34.0008 326.2216 14.97814456685888 NOAA-19 1 33591U 09005A 21245.76242467 .00000046 00000-0 50117-4 0 9995 2 33591 99.1810 268.3725 0012930 276.0829 83.8868 14.12492527647839 SRMSAT 1 37841U 11058D 21245.54132464 .00000308 00000-0 23872-4 0 9998 2 37841 19.9710 195.1531 0011977 61.5062 94.5929 14.10702491510533 HRBE 1 37855U 11061F 21245.79105633 .00001729 00000-0 89563-4 0 9999 2 37855 101.7160 209.3359 0165517 200.4738 158.9790 15.08064456538303 RS-40 1 38735U 12041C 21245.48744403 -.00000007 00000-0 -11913-3 0 9999 2 38735 82.4742 85.0595 0016465 280.6101 79.3131 12.42583228412757 ZACUBE-1 1 39417U 13066B 21245.51120422 .00000406 00000-0 56839-4 0 9996 2 39417 97.5994 225.8726 0056930 268.6359 90.8333 14.81580917420481 Delfi-N3xt 1 39428U 13066N 21245.57503352 .00000561 00000-0 95485-4 0 9993 2 39428 97.7831 188.0723 0120793 117.2031 244.1546 14.68084706416280 GOMX-1 1 39430U 13066Q 21245.85761474 .00000279 00000-0 59526-4 0 9990 2 39430 97.8105 164.4781 0149124 230.8981 127.8883 14.59664615414333 LO-74 1 39440U 13066AA 21245.44964728 .00000486 00000-0 73792-4 0 9994 2 39440 97.6833 211.0239 0079521 346.8794 13.0347 14.76302981417787 AO-73 1 39444U 13066AE 21245.51533859 .00000479 00000-0 64546-4 0 9992 2 39444 97.5897 228.2541 0055952 258.2654 101.2280 14.82502131418850 SPROUT 1 39770U 14029E 21245.58018498 .00001269 00000-0 14222-3 0 9991 2 39770 97.9211 356.8183 0007994 321.9255 38.1370 14.88606730394817 DTUSAT-2 1 40030U 14033W 21245.76795809 .00000447 00000-0 53463-4 0 9993 2 40030 97.9149 172.9988 0010386 283.1358 76.8700 14.89061436391339 EO-80 1 40032U 14033Y 21245.53172803 .00000494 00000-0 58515-4 0 9998 2 40032 97.9155 172.7705 0010337 285.2071 74.8003 14.89020741390768 HODOYOSHI-1 1 40299U 14070B 21245.81371573 .00001486 00000-0 62386-4 0 9993 2 40299 97.2808 317.2878 0014483 76.5532 62.8440 15.24895855379201 FIREBIRD FU3 1 40377U 15003B 21245.56616454 .00004117 00000-0 14993-3 0 9993 2 40377 99.1090 43.0310 0115138 274.4049 84.4035 15.22968879364522 FIREBIRD FU4 1 40378U 15003C 21245.67132519 .00004084 00000-0 14849-3 0 9994 2 40378 99.1097 43.3122 0115179 273.8466 84.9603 15.23022447364557 GRIFEX 1 40379U 15003D 21245.50994301 .00002303 00000-0 95251-4 0 9991 2 40379 99.1055 31.7574 0126364 308.9577 50.0446 15.18472450363886 NO-84 1 40654U 15025D 21244.51544224 .00049465 00000-0 27886-3 0 1367 2 40654 54.9764 40.9690 0061432 268.7379 90.6566 15.75977223 19024 XW-2A 1 40903U 15049E 21245.74481396 .00004893 00000-0 10214-3 0 9996 2 40903 97.2293 299.9905 0014024 92.9332 47.5100 15.45906327334731 XW-2C 1 40906U 15049H 21245.81617075 .00001530 00000-0 80939-4 0 9999 2 40906 97.4890 247.2179 0012805 281.5462 201.6106 15.16916942329299 XW-2D 1 40907U 15049J 21245.52866001 .00001891 00000-0 98261-4 0 9990 2 40907 97.4877 246.7549 0012080 278.4745 198.9542 15.17261482329288 LILACSAT-2 1 40908U 15049K 21245.52556369 .00001106 00000-0 63487-4 0 9995 2 40908 97.5070 244.4835 0014211 296.7994 181.5038 15.14544645328891 XW-2E 1 40909U 15049L 21245.55282094 .00002603 00000-0 12454-3 0 9990 2 40909 97.4683 250.8875 0011193 261.7605 217.3483 15.19827799329648 XW-2F 1 40910U 15049M 21245.84529144 .00002438 00000-0 11850-3 0 9999 2 40910 97.4750 250.2606 0012522 260.4162 220.6462 15.19327703329477 XW-2B 1 40911U 15049N 21245.73069233 .00001800 00000-0 93916-4 0 9992 2 40911 97.4873 247.6253 0011930 278.6819 182.9253 15.17175986329205 DCBB 1 40912U 15049P 21245.78824797 .00002697 00000-0 12135-3 0 9990 2 40912 97.4454 254.5870 0012718 227.5780 307.4885 15.21904037329957 TW-1A 1 40928U 15051D 21245.81499204 .00007628 00000-0 15381-3 0 9990 2 40928 97.0743 268.8872 0009820 21.2831 153.7907 15.46766826333644 IO-86 1 40931U 15052B 21243.44520573 .00000787 00000-0 20485-4 0 9997 2 40931 5.9974 77.5200 0013446 22.1349 337.9379 14.76686881320408 ATHENOXAT-1 1 41168U 15077C 21245.58222279 .00004598 00000-0 19616-3 0 9993 2 41168 14.9856 53.8242 0010454 171.5179 255.2990 15.16032591316504 ChubuSat-2 1 41338U 16012B 21245.56388652 .00000620 00000-0 41135-4 0 9992 2 41338 31.0035 55.5462 0013568 178.6762 181.3911 15.00588416304199 ChubuSat-3 1 41339U 16012C 21245.77899633 .00000616 00000-0 40685-4 0 9996 2 41339 31.0117 51.3303 0013270 188.8023 171.2385 15.00732010304220 Horyu-4 1 41340U 16012D 21245.51123983 .00000986 00000-0 66835-4 0 9993 2 41340 31.0059 35.6367 0013752 219.0477 140.9166 15.01989627304383 e-st@r-II 1 41459U 16025D 21245.83728593 .00004979 00000-0 24119-3 0 9995 2 41459 98.1526 26.7184 0159572 161.2478 199.4710 15.08489115294088 AAUSAT4 1 41460U 16025E 21245.70431098 .00007614 00000-0 34794-3 0 9993 2 41460 98.1524 30.8540 0145993 144.3141 216.7927 15.11785899294389 LO-87 1 41557U 16033B 21245.85608160 .00003091 00000-0 10951-3 0 9995 2 41557 97.3932 339.3806 0011888 326.9780 152.4790 15.29819543293368 NuSat2 1 41558U 16033C 21245.82263127 .00003126 00000-0 10385-3 0 9993 2 41558 97.4057 343.5308 0010651 319.4016 193.8769 15.31918392293560 Lapan A3 1 41603U 16040E 21245.81284527 .00000275 00000-0 15747-4 0 9998 2 41603 97.2501 289.7805 0015100 90.8337 21.4664 15.20086184288338 Pratham 1 41783U 16059A 21245.53637796 .00000084 00000-0 25340-4 0 9994 2 41783 97.9579 292.9742 0033558 5.3251 354.8302 14.63162034263529 TY-1 1 41844U 16066D 21245.84450323 .00001904 00000-0 76702-4 0 9993 2 41844 97.3998 255.2693 0013148 220.1890 263.3979 15.26017691267708 CAS-2T 1 41847U 16066G 21245.42062143 .00000105 00000-0 26432-4 0 9996 2 41847 98.5948 304.8402 0364933 350.8144 8.6485 14.38230893252947 EO-88 1 42017U 17008BX 21245.75009635 .00003698 00000-0 13544-3 0 9995 2 42017 97.3105 311.9632 0005888 177.3091 182.8182 15.28622457253061 CAS-4B 1 42759U 17034B 21245.80699214 .00000916 00000-0 68169-4 0 9995 2 42759 43.0174 115.7831 0009753 287.9500 162.5618 15.10338359232845 CAS-4A 1 42761U 17034D 21245.86307639 .00000915 00000-0 67930-4 0 9995 2 42761 43.0177 114.4700 0009958 291.6421 177.7840 15.10426709232856 NIUSat 1 42766U 17036B 21245.58735738 .00002094 00000-0 91767-4 0 9991 2 42766 97.2444 288.8677 0013116 262.7830 97.1916 15.23002129232952 Aalto 1 1 42775U 17036L 21245.56406331 .00001680 00000-0 74459-4 0 9992 2 42775 97.2408 289.0539 0011684 262.1184 97.8727 15.22900455232939 URSA MAIOR 1 42776U 17036M 21245.74969219 .00001831 00000-0 80222-4 0 9995 2 42776 97.2422 289.7446 0011464 260.4564 99.5377 15.23187953232985 Max Valier Sat 1 42778U 17036P 21245.59749569 .00001983 00000-0 84959-4 0 9993 2 42778 97.2491 291.6633 0009947 262.5078 97.5030 15.23873442233035 Pegasus 1 42784U 17036V 21245.75329085 .00002601 00000-0 10771-3 0 9993 2 42784 97.2443 292.3337 0009535 265.3648 94.6501 15.24756143233136 NUDATSat 1 42787U 17036Y 21245.59166047 .00004503 00000-0 17315-3 0 9999 2 42787 97.2469 294.8474 0008729 258.2500 101.7748 15.26873785233102 SUCHAI 1 1 42788U 17036Z 21245.57941436 .00003121 00000-0 12546-3 0 9997 2 42788 97.2454 293.2588 0009001 261.7609 98.2609 15.25613138233243 SKCUBE 1 42789U 17036AA 21245.36023902 .00002693 00000-0 10958-3 0 9992 2 42789 97.2447 292.7204 0008936 263.8318 96.1902 15.25316989233114 VZLUSAT 1 1 42790U 17036AB 21245.58713446 .00003918 00000-0 15118-3 0 9991 2 42790 97.2480 294.8325 0008317 255.8636 104.1679 15.26838457233253 VENTA 1 1 42791U 17036AC 21245.54142272 .00002769 00000-0 11286-3 0 9996 2 42791 97.2442 292.8998 0008640 263.7487 96.2767 15.25242809233132 Robusta 1B 1 42792U 17036AD 21245.57905625 .00003073 00000-0 12373-3 0 9996 2 42792 97.2450 293.3429 0008504 262.5225 97.5048 15.25577607233181 D-SAT 1 42794U 17036AF 21245.57115316 .00000615 00000-0 58166-4 0 9998 2 42794 97.4603 261.3598 0124456 328.8746 30.5142 14.91662981228555 TechnoSat 1 42829U 17042E 21245.61561166 .00000168 00000-0 22056-4 0 9999 2 42829 97.4583 111.0117 0012616 247.4727 112.5157 14.91331788225189 QIKCOM-1 1 42983U 98067NF 21245.65886522 .00011885 00000-0 10861-3 0 9994 2 42983 51.6342 226.6830 0001996 297.0648 63.0145 15.68323876219513 AO-91 1 43017U 17073E 21245.49603316 .00001673 00000-0 13234-3 0 9992 2 43017 97.6980 146.4021 0255759 49.1953 313.1139 14.79684942204515 EcAMSat 1 43019U 98067NG 21245.55358648 .00055541 00000-0 22986-3 0 9995 2 43019 51.6370 183.8896 0000459 97.4006 262.7050 15.85273669302399 PICSAT 1 43132U 18004X 21245.82626180 .00002565 00000-0 10198-3 0 9993 2 43132 97.4050 319.6733 0007370 300.8117 59.2395 15.26193551202486 AO-92 1 43137U 18004AC 21245.47659552 .00002230 00000-0 90732-4 0 9990 2 43137 97.4021 318.7156 0007245 306.0773 53.9794 15.25548982202402 TianYi 2 1 43155U 18008A 21245.85742356 .00001862 00000-0 10975-3 0 9991 2 43155 97.3955 308.4831 0018742 63.3933 359.1898 15.12649969199772 Zhou Enlai 1 43156U 18008B 21245.88683179 .00001818 00000-0 10846-3 0 9990 2 43156 97.4009 308.3494 0015849 63.6978 46.9984 15.12271778199715 TianYi 6 1 43158U 18008D 21245.85930339 .00001804 00000-0 10947-3 0 9999 2 43158 97.3950 306.7848 0014702 64.2703 48.0091 15.11673634199635 S-Net D 1 43186U 18014G 21245.48689091 .00000935 00000-0 85906-4 0 9994 2 43186 97.6700 151.6667 0011041 174.7294 185.4047 14.97122122195821 S-Net B 1 43187U 18014H 21245.48683811 .00000941 00000-0 86423-4 0 9991 2 43187 97.6697 151.6304 0011042 174.6780 185.4562 14.97121595195820 S-Net A 1 43188U 18014J 21245.48694767 .00000938 00000-0 86182-4 0 9992 2 43188 97.6701 151.6787 0011033 174.7681 185.3658 14.97120422195826 S-Net C 1 43189U 18014K 21245.28693010 .00000936 00000-0 86063-4 0 9997 2 43189 97.6697 151.4260 0011003 175.3309 184.8018 14.97120013194342 FMN 1 1 43192U 18015A 21245.87501089 .00005366 00000-0 19482-3 0 9993 2 43192 97.4985 21.7004 0013607 334.2197 177.1552 15.28661777199415 Shaonian Xing 1 43199U 18015H 21245.86384878 .00003757 00000-0 14006-3 0 9993 2 43199 97.4769 18.5521 0015038 344.5666 166.5828 15.27970832199462 SurfSat 1 43614U 18070B 21245.74282841 .00007006 00000-0 15860-3 0 9990 2 43614 93.0358 338.2279 0016192 68.6496 291.6487 15.43001088166583 CP-7 DAVE 1 43615U 18070C 21245.77547028 .00006599 00000-0 15103-3 0 9991 2 43615 93.0362 338.1872 0016389 68.5768 291.7235 15.42674918166574 ELFIN-B 1 43616U 18070D 21245.57573227 .00011079 00000-0 22560-3 0 9994 2 43616 93.0313 338.3958 0015784 66.6689 293.6228 15.46106968166681 ELFIN-A 1 43617U 18070E 21245.57469294 .00011528 00000-0 23044-3 0 9990 2 43617 93.0361 339.3180 0015051 64.0484 296.2323 15.46658348166707 CubeBel-1 1 43666U 18083E 21245.89374310 .00002192 00000-0 10593-3 0 9999 2 43666 97.4535 273.2837 0012802 257.8307 224.5899 15.19627494157771 Changshagaoxin 1 43669U 18083H 21245.82469685 .00002142 00000-0 10746-3 0 9990 2 43669 97.4439 270.0498 0008886 252.0653 282.5228 15.18370452157625 Ten-Koh 1 43677U 18084G 21245.59142294 .00000202 00000-0 26557-4 0 9991 2 43677 97.9289 8.8676 0017009 136.9901 223.2649 14.90512557154797 PO-101 1 43678U 18084H 21245.85901327 .00000671 00000-0 72319-4 0 9998 2 43678 97.9335 11.5791 0010583 148.0269 212.1592 14.91786337154974 IRVINE 01 1 43693U 18088D 21245.73817929 .00006446 00000-0 24570-3 0 9991 2 43693 85.0358 143.5798 0018626 96.8851 263.4513 15.26315039156228 QO-100 1 43700U 18090A 21245.50858220 .00000141 00000-0 00000-0 0 9992 2 43700 0.0145 131.5379 0002202 69.5853 349.6368 1.00272342 10143 Reaktor Hello World 1 43743U 18096AA 21245.74014979 .00002849 00000-0 10294-3 0 9992 2 43743 97.3821 322.6637 0017029 8.5535 351.5992 15.29164130153945 MinXSS-2 1 43758U 18099A 21245.75133686 .00001144 00000-0 10639-3 0 9999 2 43758 97.6619 315.3250 0016504 145.1242 215.1065 14.96157390150079 AO-95 1 43770U 18099N 21245.73651047 .00001017 00000-0 97052-4 0 9991 2 43770 97.6596 314.1987 0015284 154.1056 206.0933 14.95406578150008 RANGE-B 1 43772U 18099Q 21245.74877820 .00001268 00000-0 11871-3 0 9995 2 43772 97.6687 315.3281 0015191 141.4306 218.8004 14.95732208150018 RANGE-A 1 43773U 18099R 21245.74814088 .00000694 00000-0 68039-4 0 9994 2 43773 97.6530 313.4544 0014530 141.2959 218.9305 14.95278977149993 MOVE-II 1 43780U 18099Y 21245.46482855 .00001246 00000-0 11584-3 0 9990 2 43780 97.6615 314.5599 0014280 151.6722 208.5279 14.96058008149988 SNUSat 2 1 43782U 18099AA 21245.75693379 .00000584 00000-0 57536-4 0 9991 2 43782 97.6598 314.5868 0013736 139.7978 220.4262 14.95644618150023 SnugLite 1 43784U 18099AC 21245.75863631 .00000509 00000-0 50666-4 0 9997 2 43784 97.6562 314.2952 0015832 147.7293 212.4900 14.95777868150041 ITASat 1 1 43786U 18099AE 21245.44012762 .00000060 00000-0 10522-4 0 9995 2 43786 97.6617 314.6409 0015870 148.7509 211.4659 14.95690243149991 EAGLET 1 1 43790U 18099AJ 21245.72422009 .00000330 00000-0 34452-4 0 9998 2 43790 97.6603 315.3616 0014217 151.0191 209.1823 14.96034175149766 ESEO 1 43792U 18099AL 21245.78865335 .00000137 00000-0 17366-4 0 9999 2 43792 97.6567 314.9536 0014091 148.1284 212.0792 14.95773946149823 CSIM 1 43793U 18099AM 21245.76700260 .00000577 00000-0 55481-4 0 9991 2 43793 97.6611 315.4582 0013873 143.3577 216.8596 14.96729592149834 Astrocast 0.1 1 43798U 18099AS 21245.19392913 .00000612 00000-0 59194-4 0 9990 2 43798 97.6609 315.0710 0013473 133.6591 226.5750 14.96272494149990 JO-97 1 43803U 18099AX 21245.72532464 .00000686 00000-0 66244-4 0 9998 2 43803 97.6575 314.6634 0015956 147.9238 212.2957 14.95951210150041 Suomi 100 1 43804U 18099AY 21245.73243016 .00000908 00000-0 86068-4 0 9995 2 43804 97.6573 314.6304 0016093 147.8435 212.3771 14.95918821150052 Al Farabi 2 1 43805U 18099AZ 21245.58787324 .00000308 00000-0 32337-4 0 9998 2 43805 97.6606 314.7515 0015647 147.3068 212.9126 14.96156366150044 CHOMPTT 1 43855U 18104G 21245.79680566 .00002021 00000-0 81021-4 0 9991 2 43855 85.0344 242.2240 0015420 214.1132 145.9122 15.24226428150874 ISAT 1 43879U 18111D 21245.81474673 .00000754 00000-0 70978-4 0 9998 2 43879 97.6764 151.6852 0012339 198.6308 161.4473 14.96725377144627 UWE-4 1 43880U 18111E 21245.72380620 .00000115 00000-0 15022-4 0 9998 2 43880 97.6794 152.1178 0011415 199.7243 160.3539 14.96960295144646 Sparrow 1 43881U 18111F 21245.69156453 .00001270 00000-0 11519-3 0 9999 2 43881 97.6806 152.2329 0011736 194.7880 165.3000 14.97021373144642 Lume 1 1 43908U 18111AJ 21245.42400304 .00002555 00000-0 99955-4 0 9995 2 43908 97.2231 137.6473 0021009 23.3623 336.8566 15.26526255149417 FO-98 1 43933U 19003B 21245.57765746 .00017202 00000-0 61072-3 0 9997 2 43933 97.1789 284.1772 0017270 117.5239 242.7759 15.28960407145885 FO-99 1 43937U 19003F 21245.57105361 .00003187 00000-0 12522-3 0 9995 2 43937 97.1710 285.6526 0024813 98.5743 261.8309 15.26102528146025 MYSat 1 1 44045U 18092F 21245.48029527 .00007355 00000-0 18598-3 0 9992 2 44045 51.6376 50.0675 0010414 126.1881 234.0069 15.40810414143333 AstroCast 0.2 1 44083U 19018F 21245.58791734 .00002511 00000-0 10991-3 0 9998 2 44083 97.3667 305.2103 0014265 65.5190 294.7532 15.22875256134639 AISTechSat 3 1 44103U 19018AB 21245.75276111 .00002134 00000-0 89962-4 0 9993 2 44103 97.3532 305.7926 0014727 73.4826 74.1670 15.24307429134781 AISat 1 1 44104U 19018AC 21245.79745891 .00002307 00000-0 72689-4 0 9994 2 44104 97.4218 323.2693 0057935 80.4296 280.3485 15.32335064135519 Raavana-1 1 44329U 98067QE 21245.35962282 .00165305 21258-4 50880-3 0 9999 2 44329 51.6293 244.7216 0003172 52.7730 307.3565 15.91474226126349 Uguisu 1 44330U 98067QF 21245.40216885 .00141364 00000-0 45807-3 0 9998 2 44330 51.6245 245.6286 0002733 55.6764 304.4499 15.89864800126315 NepaliSat-1 1 44331U 98067QG 21245.36374548 .00156015 20112-4 48904-3 0 9995 2 44331 51.6265 244.6312 0002990 54.0835 306.0448 15.91145321126331 Prox-1 1 44339U 19036A 21245.32294670 .00001246 00000-0 24227-3 0 9992 2 44339 23.9993 210.0290 0010160 301.6922 58.2579 14.53709463116360 Oculus-ASR 1 44348U 19036K 21245.70162957 .00014152 00000-0 18475-3 0 9994 2 44348 28.5125 338.9678 0321301 24.6213 336.9360 15.14443905120627 Armadillo 1 44352U 19036P 21245.32023463 .00019172 00000-0 22778-3 0 9993 2 44352 28.5265 313.9632 0285976 63.3031 299.6545 15.23433850120791 NO-104 1 44354U 19036R 21245.58456534 .00014778 00000-0 18799-3 0 9997 2 44354 28.5277 331.7952 0316037 34.0362 328.0083 15.16049164120678 NO-103 1 44355U 19036S 21245.76251538 .00031431 -56443-5 30140-3 0 9992 2 44355 28.5246 271.6998 0243918 131.8552 230.3138 15.35081896121295 CP9 1 44360U 19036X 21245.22837503 .00114192 -33306-5 53934-3 0 9996 2 44360 28.4984 186.6553 0138316 272.3840 86.0937 15.68562314121969 Move-IIb 1 44398U 19038N 21245.84579913 .00003561 00000-0 19841-3 0 9990 2 44398 97.5898 209.5466 0025822 44.4438 315.8857 15.13984401119479 SONATE 1 44400U 19038Q 21245.84541382 .00001321 00000-0 78736-4 0 9994 2 44400 97.5964 209.3558 0026157 45.5689 314.7676 15.12689003119431 BeeSat 9 1 44412U 19038AC 21245.63043789 .00002188 00000-0 12516-3 0 9997 2 44412 97.5944 209.4774 0023484 51.0936 309.2384 15.13512215119122 JAISAT-1 1 44419U 19038F 21245.44331302 .00002384 00000-0 13429-3 0 9996 2 44419 97.5947 209.8991 0022325 49.9954 310.3233 15.13996587119445 LightSail-2 1 44420U 19036AC 21245.53827494 .00004142 00000-0 79866-3 0 9999 2 44420 24.0037 182.9788 0006224 327.1226 32.8879 14.60155797114774 Taurus 1 1 44530U 19059C 21245.73577835 .00000668 00000-0 19947-3 0 9992 2 44530 98.5521 336.7425 0012279 267.4619 92.5164 14.46162294104252 Duchifat 3 1 44854U 19089C 21245.70085466 .00001023 00000-0 87886-4 0 9999 2 44854 36.9678 3.7731 0008214 32.5557 327.5687 14.99601397 94706 OPS-SAT 1 44878U 19092F 21245.77965331 .00001349 00000-0 72121-4 0 9991 2 44878 97.4775 68.1661 0012103 260.8180 99.1684 15.16729365 94557 TO-108 1 44881U 19093C 21245.87031359 .00000132 00000-0 23555-4 0 9997 2 44881 97.9207 323.8440 0016220 45.3062 314.9460 14.81476246 92197 FloripaSat 1 1 44885U 19093G 21245.71103287 .00000506 00000-0 69783-4 0 9992 2 44885 97.9229 324.3888 0015810 52.7564 307.5092 14.82364219 92219 RS-44 1 44909U 19096E 21245.55804388 .00000046 00000-0 14944-3 0 9991 2 44909 82.5187 61.5695 0216377 272.8678 84.7679 12.79710738 78682 SwampSat-2 1 45115U 19071E 21245.53588470 .00119923 00000-0 11914-2 0 9991 2 45115 51.6329 349.0772 0006460 294.8971 65.1352 15.64842479 89461 HO-107 1 45119U 19071J 21245.57690433 .00005427 00000-0 16117-3 0 9996 2 45119 51.6427 22.7806 0010892 207.1911 152.8503 15.36359344 89029 Phoenix 1 45258U 98067RB 21245.55746856 .00012370 00000-0 16617-3 0 9991 2 45258 51.6392 302.6360 0004302 174.6944 185.4095 15.58327456 87223 AztechSat-1 1 45261U 98067RE 21245.52732790 .00050457 00000-0 39090-3 0 9992 2 45261 51.6336 285.8618 0001332 218.1579 141.9324 15.71328400 87475 QARMAN 1 45263U 98067RG 21245.54681834 .00029256 00000-0 29065-3 0 9992 2 45263 51.6371 293.5550 0002816 197.3086 162.7814 15.65496859 87401 Quetzal 1 1 45598U 98067RL 21245.44367383 .00023852 00000-0 26328-3 0 9997 2 45598 51.6391 299.6551 0002070 338.7860 21.3049 15.62941236 76583 BY70-2 1 45857U 20042B 21245.80044081 .00001680 00000-0 24415-3 0 9990 2 45857 97.9808 320.7441 0009834 331.9928 28.0746 14.77239733 62968 UPMSat 2 1 46276U 20061E 21245.48485651 .00000925 00000-0 50706-4 0 9997 2 46276 97.4274 317.7010 0003085 93.3565 266.8021 15.16591264 55214 AmicalSat 1 46287U 20061R 21245.48183972 .00001377 00000-0 87102-4 0 9992 2 46287 97.4827 317.0486 0002991 158.4571 201.6785 15.10632833 54973 SALSAT 1 46495U 20068K 21245.39654923 -.00000050 00000-0 91714-6 0 9993 2 46495 97.6944 182.4514 0016546 166.2207 193.9473 15.03523651 50899 BY70-3 1 46839U 20079N 21245.76093667 .00004620 00000-0 14173-3 0 9997 2 46839 97.2354 318.0896 0005352 292.2283 223.8604 15.34237287 46052 SPOC 1 46921U 98067RR 21245.57095423 .00011901 00000-0 17464-3 0 9998 2 46921 51.6422 311.0367 0002662 15.5646 344.5427 15.55975605 46869 Bobcat-1 1 46922U 98067RS 21245.41872233 .00016900 00000-0 22304-3 0 9997 2 46922 51.6421 309.2975 0002752 19.0953 341.0142 15.58504220 46830 Neutron-1 1 46923U 98067RT 21245.46437479 .00011231 00000-0 16599-3 0 9993 2 46923 51.6422 311.8216 0002641 25.8278 334.2845 15.55845401 46875 CAPE 3 1 47309U 21002A 21245.56183526 .00002339 00000-0 11401-3 0 9995 2 47309 60.6850 3.6188 0045282 89.5914 271.0361 15.21064601 34613 AO-109 1 47311U 21002C 21245.75661345 .00002069 00000-0 10021-3 0 9996 2 47311 60.6871 1.7605 0041326 87.6298 272.9519 15.21929225 34641 MiTEE 1 1 47314U 21002F 21245.81405637 .00004025 00000-0 17448-3 0 9990 2 47314 60.6860 359.7139 0041732 80.0574 280.5220 15.23609826 34698 ExoCube 2 1 47319U 21002L 21245.61466768 .00002253 00000-0 10904-3 0 9996 2 47319 60.6853 2.7385 0042714 88.8985 271.6995 15.21551476 34578 UVSQ-SAT 1 47438U 21006AB 21245.41811826 .00001437 00000-0 84234-4 0 9990 2 47438 97.4811 305.2461 0012535 185.2629 174.8472 15.13317676 33692 YUSAT 1 1 47439U 21006AC 21245.75068281 .00001687 00000-0 98184-4 0 9993 2 47439 97.4813 305.5742 0012434 184.3109 175.8017 15.13339776 33748 SOMP 2b 1 47445U 21006AJ 21245.44080294 .00001409 00000-0 83039-4 0 9999 2 47445 97.4782 305.1341 0012048 188.7265 171.3758 15.13149227 33690 IDEASSat 1 47458U 21006AX 21245.72520301 .00001371 00000-0 81193-4 0 9999 2 47458 97.4874 305.6348 0011253 185.0531 175.0589 15.13013104 33733 RSP-01 1 47925U 98067SB 21245.48934635 .00011538 00000-0 18704-3 0 9994 2 47925 51.6429 317.2225 0002421 341.8759 18.2144 15.53255401 26744 TAUSAT-1 1 47926U 98067SC 21245.74681335 .00015655 00000-0 24286-3 0 9996 2 47926 51.6418 315.1877 0003553 336.9266 23.1565 15.54169509 26788 Tsuru 1 47927U 98067SD 21245.50563711 .00010990 00000-0 18057-3 0 9994 2 47927 51.6434 317.3311 0002393 339.8826 20.2070 15.52934143 26746 STARS-EC 1 47928U 98067SE 21245.47956487 .00016058 00000-0 25231-3 0 9990 2 47928 51.6426 317.1486 0006121 34.0913 326.0469 15.53784300 26729 Maya-2 1 47929U 98067SF 21245.50227643 .00009841 00000-0 16236-3 0 9997 2 47929 51.6432 317.3080 0002418 336.6667 23.4213 15.52958638 26700 OPUSAT-II 1 47930U 98067SG 21245.57100644 .00017300 00000-0 26616-3 0 9999 2 47930 51.6427 316.2705 0002615 336.4704 23.6167 15.54318052 26765 GuaraniSat-1 1 47931U 98067SH 21245.56506837 .00011390 00000-0 18657-3 0 9992 2 47931 51.6433 316.9799 0002472 335.4674 24.6198 15.52978610 26753 CubeSX-Sirius-HSE 1 47951U 21022V 21245.66516937 .00001960 00000-0 13873-3 0 9991 2 47951 97.5509 146.2478 0023318 50.2792 310.0485 15.05788751 24674 CubeSX-HSE 1 47952U 21022W 21245.79381138 .00001868 00000-0 13226-3 0 9998 2 47952 97.5504 146.3803 0023001 49.8070 310.5135 15.05830289 24698 KSU-Cubesat 1 47954U 21022Y 21245.78517794 .00001015 00000-0 73678-4 0 9990 2 47954 97.5510 146.3994 0023023 50.2605 310.0645 15.05915307 24418 GRBAlpha 1 47959U 21022AD 21245.72760386 .00001910 00000-0 13517-3 0 9995 2 47959 97.5504 146.3266 0022977 50.5533 309.7712 15.05830602 23501 Orbicraft-Zorkiy 1 47960U 21022AE 21245.79966243 .00001682 00000-0 11933-3 0 9990 2 47960 97.5533 146.4403 0022884 50.3580 19.8576 15.05901521 24200 STECCO 1 47962U 21022AG 21245.82092764 .00001820 00000-0 12533-3 0 9995 2 47962 97.5472 146.6405 0018294 46.6076 26.0562 15.06982850 23520 DO-111 1 47963U 21022AH 21245.49519976 .00003145 00000-0 20963-3 0 9996 2 47963 97.5499 146.4537 0021029 44.7927 315.4994 15.07622687 23500 MO-110 1 47964U 21022AJ 21245.51342355 .00001476 00000-0 10157-3 0 9994 2 47964 97.5496 146.4211 0021145 45.2719 315.0226 15.07258495 23484 FEES 1 48082U 21022AL 21245.23056052 .00001605 00000-0 11142-3 0 9990 2 48082 97.5500 146.0549 0017405 44.0207 316.2403 15.06854035 23149 RamSat 1 48850U 98067SL 21245.50979417 .00008460 00000-0 15214-3 0 9995 2 48850 51.6430 319.5824 0004764 62.7168 297.4306 15.50725361 12468 MO-112 1 48868U 98067SP 21245.56646606 .00017296 00000-0 29422-3 0 9994 2 48868 51.6428 319.2126 0003455 50.9476 309.1821 15.51513515 11259 TUBIN 1 48900U 21059X 21245.86327655 .00000753 00000-0 47249-4 0 9999 2 48900 97.5176 13.6301 0011232 22.4096 97.3117 15.12251388 10436 /EX
